Location: Key Biscayne
(25.6930°N, 80.1630°W)
Time: 07:29:51
(UTC-05:00)

Vanguard 1 - Pass Details

Date: 26 November 2017
Orbit: 650 x 3833 km, 34.2° (Epoch: 10 December)

Event Time Altitude Azimuth Distance (km) Brightness Sun altitude
Rises 18:45:03 0° 296° (WNW) 3,145 13.5 -16.9°
Reaches altitude 10° 18:47:35 10° 302° (WNW) 2,098 12.3 -17.5°
Maximum altitude 18:51:55 48° 18° (NNE) 851 9.5 -18.4°
Enters shadow 18:53:08 38° 63° (ENE) 1,016 9.6 -18.7°
